Charlotte, MI

10:16 PM EDT on April 24, 2017 (GMT -0400)
Charlotte

Weather History for KFPK - December, 2012

Change the Weather History Date:

Thursday, December 6, 2012

  Actual Average (KLAN) Record (KLAN)
Temperature  
Mean Temperature 34 °F -  
Max Temperature 40 °F 37 °F 65 °F (1998)
Min Temperature 27 °F 23 °F -17 °F (1964)
Degree Days  
Heating Degree Days 32    
Moisture  
Dew Point 28 °F    
Average Humidity 79    
Maximum Humidity 86    
Minimum Humidity 65    
Precipitation  
Precipitation 0.00 in - - ()
Sea Level Pressure  
Sea Level Pressure 30.09 in    
Wind  
Wind Speed 6 mph (SSE)    
Max Wind Speed 15 mph    
Max Gust Speed 18 mph    
Visibility 10 miles    
Events      
Averages and records for this station are not official NWS values.
T = Trace of Precipitation, MM = Missing Value Source: NWS Daily Summary

Daily Weather History Graph

Daily Weather History Graph

Search for Another Location

Airport or City:

Trip Planner

Search our weather history database for the weather conditions in past years. The results will help you decide how hot, cold, wet, or windy it might be!

Date:

Astronomy

Dec. 06, 2012 Rise Set
Actual Time 7:55 AM EST 5:05 PM EST
Civil Twilight 7:23 AM EST 5:37 PM EST
Nautical Twilight 6:47 AM EST 6:13 PM EST
Astronomical Twilight 6:13 AM EST 6:47 PM EST
Moon 12:01 AM EST (12/6) 12:39 PM EST (12/6)
Length of Visible Light 10h 14m
Length of Day
9h 10m
Waning Gibbous, 49% of the Moon is Illuminated
Dec 6
Waning Gibbous
Dec 13
New
Dec 20
First Quarter
Dec 28
Full
Jan 4
Last Quarter

Hourly Weather History & Observations

Time (EST) Temp. Windchill Dew Point Humidity Pressure Visibility Wind Dir Wind Speed Gust Speed Precip Events Conditions
12:16 AM 28.4 °F 23.3 °F 24.4 °F 85% 30.29 in 10.0 mi SE 4.6 mph - N/A   Clear
12:35 AM 28.4 °F 24.6 °F 24.1 °F 84% 30.28 in 10.0 mi SE 3.5 mph - N/A   Clear
12:56 AM 28.2 °F - 24.1 °F 84% 30.28 in 10.0 mi Calm Calm - N/A   Clear
1:16 AM 27.7 °F 22.4 °F 23.7 °F 85% 30.27 in 10.0 mi SE 4.6 mph - N/A   Clear
1:35 AM 27.5 °F 23.6 °F 23.5 °F 85% 30.26 in 10.0 mi SE 3.5 mph - N/A   Clear
1:56 AM 27.9 °F 21.5 °F 23.7 °F 84% 30.25 in 10.0 mi SE 5.8 mph - N/A   Clear
2:15 AM 28.0 °F 22.8 °F 23.5 °F 83% 30.25 in 10.0 mi SSE 4.6 mph - N/A   Clear
2:35 AM 28.2 °F 22.0 °F 23.5 °F 83% 30.25 in 10.0 mi SSE 5.8 mph - N/A   Clear
2:55 AM 27.1 °F 21.8 °F 22.8 °F 84% 30.26 in 10.0 mi SSE 4.6 mph - N/A   Clear
3:15 AM 27.9 °F 24.0 °F 23.5 °F 84% 30.25 in 10.0 mi SE 3.5 mph - N/A   Clear
3:36 AM 27.9 °F 24.0 °F 23.7 °F 84% 30.25 in 10.0 mi SSE 3.5 mph - N/A   Clear
3:55 AM 27.3 °F 23.4 °F 23.5 °F 86% 30.25 in 10.0 mi SSE 3.5 mph - N/A   Clear
4:16 AM 27.3 °F - 23.5 °F 86% 30.23 in 10.0 mi Calm Calm - N/A   Clear
4:35 AM 28.0 °F - 23.9 °F 84% 30.23 in 10.0 mi Calm Calm - N/A   Clear
4:56 AM 27.7 °F - 24.1 °F 86% 30.24 in 10.0 mi Calm Calm - N/A   Clear
5:15 AM 28.2 °F 24.4 °F 24.6 °F 86% 30.23 in 10.0 mi South 3.5 mph - N/A   Clear
5:36 AM 28.4 °F 24.6 °F 24.8 °F 86% 30.23 in 10.0 mi SSE 3.5 mph - N/A   Clear
5:55 AM 28.8 °F 25.0 °F 24.8 °F 85% 30.23 in 10.0 mi SE 3.5 mph - N/A   Clear
6:15 AM 28.8 °F 23.7 °F 24.8 °F 85% 30.21 in 10.0 mi SE 4.6 mph - N/A   Clear
6:35 AM 28.6 °F 23.5 °F 24.8 °F 86% 30.21 in 10.0 mi SE 4.6 mph - N/A   Clear
6:55 AM 28.9 °F 23.9 °F 24.8 °F 84% 30.20 in 10.0 mi SE 4.6 mph - N/A   Clear
7:16 AM 29.1 °F 24.1 °F 25.2 °F 85% 30.18 in 10.0 mi SE 4.6 mph - N/A   Clear
7:35 AM 29.1 °F 23.0 °F 25.2 °F 85% 30.18 in 10.0 mi SE 5.8 mph - N/A   Clear
7:55 AM 29.8 °F 23.9 °F 25.7 °F 85% 30.17 in 10.0 mi SSE 5.8 mph - N/A   Clear
8:15 AM 30.6 °F 21.8 °F 26.1 °F 83% 30.17 in 10.0 mi SSE 10.4 mph - N/A   Clear
8:35 AM 30.9 °F 22.8 °F 26.1 °F 82% 30.17 in 10.0 mi SSE 9.2 mph - N/A   Clear
8:55 AM 31.1 °F 23.1 °F 26.1 °F 82% 30.17 in 10.0 mi SSE 9.2 mph - N/A   Clear
9:15 AM 31.8 °F 23.3 °F 26.2 °F 80% 30.17 in 10.0 mi South 10.4 mph - N/A   Clear
9:36 AM 32.0 °F 23.6 °F 26.6 °F 80% 30.17 in 10.0 mi SSE 10.4 mph - N/A   Scattered Clouds
9:55 AM 32.2 °F 24.4 °F 26.4 °F 79% 30.17 in 10.0 mi South 9.2 mph - N/A   Scattered Clouds
10:16 AM 33.1 °F 24.9 °F 27.1 °F 79% 30.16 in 10.0 mi South 10.4 mph 16.1 mph N/A   Clear
10:35 AM 33.4 °F 24.3 °F 26.6 °F 76% 30.16 in 10.0 mi South 12.7 mph - N/A   Clear
10:56 AM 34.9 °F 27.1 °F 27.0 °F 73% 30.16 in 10.0 mi South 10.4 mph - N/A   Clear
11:15 AM 34.9 °F 27.1 °F 26.1 °F 70% 30.15 in 10.0 mi South 10.4 mph 18.4 mph N/A   Clear
11:35 AM 36.1 °F 26.9 °F 25.9 °F 66% 30.13 in 10.0 mi South 15.0 mph - N/A   Clear
11:55 AM 35.8 °F 28.8 °F 26.1 °F 68% 30.11 in 10.0 mi South 9.2 mph - N/A   Clear
12:15 PM 36.7 °F 29.4 °F 26.6 °F 67% 30.09 in 10.0 mi South 10.4 mph - N/A   Clear
12:36 PM 37.9 °F 30.5 °F 27.1 °F 65% 30.07 in 10.0 mi South 11.5 mph - N/A   Clear
12:55 PM 37.8 °F 30.7 °F 27.5 °F 67% 30.07 in 10.0 mi South 10.4 mph - N/A   Clear
1:16 PM 37.9 °F 31.5 °F 28.0 °F 68% 30.06 in 10.0 mi South 9.2 mph - N/A   Clear
1:35 PM 38.3 °F 30.9 °F 28.4 °F 68% 30.05 in 10.0 mi South 11.5 mph - N/A   Clear
1:56 PM 39.2 °F 32.5 °F 28.6 °F 66% 30.03 in 10.0 mi South 10.4 mph - N/A   Clear
2:15 PM 39.4 °F 33.2 °F 28.9 °F 66% 30.01 in 10.0 mi South 9.2 mph - N/A   Clear
2:35 PM 39.4 °F 33.2 °F 29.3 °F 67% 30.01 in 10.0 mi South 9.2 mph - N/A   Clear
2:56 PM 39.6 °F 33.0 °F 29.7 °F 68% 30.00 in 10.0 mi South 10.4 mph - N/A   Scattered Clouds
3:15 PM 40.1 °F 34.1 °F 30.0 °F 67% 30.00 in 10.0 mi South 9.2 mph - N/A   Scattered Clouds
3:36 PM 40.1 °F 34.7 °F 30.0 °F 67% 30.01 in 10.0 mi SSW 8.1 mph - N/A   Scattered Clouds
3:55 PM 40.1 °F 34.1 °F 30.0 °F 67% 29.99 in 10.0 mi South 9.2 mph - N/A   Scattered Clouds
4:16 PM 39.7 °F 34.9 °F 30.6 °F 70% 29.98 in 10.0 mi SSE 6.9 mph - N/A   Clear
4:35 PM 39.2 °F 34.2 °F 30.6 °F 71% 29.98 in 10.0 mi SSE 6.9 mph - N/A   Clear
4:55 PM 38.8 °F 33.8 °F 30.9 °F 73% 29.97 in 10.0 mi SSE 6.9 mph - N/A   Clear
5:16 PM 38.5 °F 35.0 °F 31.1 °F 75% 29.97 in 10.0 mi SSE 4.6 mph - N/A   Clear
5:35 PM 38.3 °F 35.9 °F 31.3 °F 76% 29.97 in 10.0 mi South 3.5 mph - N/A   Clear
5:56 PM 38.3 °F 33.9 °F 31.8 °F 77% 29.97 in 10.0 mi SSE 5.8 mph - N/A   Scattered Clouds
6:15 PM 37.9 °F 33.5 °F 32.0 °F 79% 29.97 in 10.0 mi South 5.8 mph - N/A   Mostly Cloudy
6:36 PM 37.9 °F 33.5 °F 32.0 °F 79% 29.97 in 10.0 mi South 5.8 mph - N/A   Overcast
6:56 PM 38.1 °F 32.9 °F 32.0 °F 79% 29.96 in 10.0 mi South 6.9 mph - N/A   Overcast
7:15 PM 37.9 °F 32.7 °F 32.0 °F 79% 29.97 in 10.0 mi SSW 6.9 mph - N/A   Overcast
7:36 PM 37.8 °F 32.5 °F 32.2 °F 80% 29.96 in 10.0 mi SSE 6.9 mph - N/A   Overcast
7:55 PM 37.6 °F 31.6 °F 32.2 °F 81% 29.96 in 10.0 mi South 8.1 mph - N/A   Scattered Clouds
8:16 PM 37.4 °F 32.1 °F 32.4 °F 82% 29.96 in 10.0 mi South 6.9 mph - N/A   Scattered Clouds
8:35 PM 37.4 °F 31.4 °F 32.4 °F 82% 29.95 in 10.0 mi South 8.1 mph - N/A   Overcast
8:55 PM 37.4 °F 30.8 °F 32.9 °F 84% 29.94 in 10.0 mi SSE 9.2 mph - N/A   Overcast
9:15 PM 37.6 °F 32.3 °F 32.9 °F 83% 29.94 in 10.0 mi South 6.9 mph - N/A   Overcast
9:35 PM 37.9 °F 32.1 °F 33.3 °F 83% 29.94 in 10.0 mi South 8.1 mph - N/A   Overcast
9:55 PM 37.9 °F 32.1 °F 33.3 °F 83% 29.94 in 10.0 mi South 8.1 mph - N/A   Overcast
10:15 PM 37.9 °F 32.7 °F 33.4 °F 84% 29.93 in 10.0 mi South 6.9 mph - N/A   Overcast
10:36 PM 38.3 °F 34.8 °F 33.8 °F 84% 29.93 in 10.0 mi South 4.6 mph - N/A   Overcast
10:55 PM 38.3 °F 32.5 °F 33.8 °F 84% 29.92 in 10.0 mi SSE 8.1 mph - N/A   Overcast
11:15 PM 38.5 °F 34.1 °F 33.8 °F 83% 29.91 in 10.0 mi SSE 5.8 mph - N/A   Overcast
11:36 PM 38.7 °F 35.2 °F 34.2 °F 84% 29.93 in 10.0 mi WSW 4.6 mph - N/A   Overcast
11:55 PM 38.5 °F 34.1 °F 34.0 °F 84% 29.93 in 10.0 mi South 5.8 mph - N/A   Overcast